Overview Statistics Trail Chart Weather Telemetry Raw packets
 

This is the latest recevied weather packets stored in our database for station/object K7MT-WX. If no packets are shown the sender has not sent any weather packets the latest 10 day(s).

<< 30 31 32 33 34 35 36 >>
Time Temp. Humidity Pressure Rain* Wind** Luminosity Snow
1787926500 12.78° C 78% 1016.4 hPa 0 mm - - -
1787925600 12.22° C 80% 1016.6 hPa 0 mm - - -
1787924700 12.22° C 83% 1016.4 hPa 0 mm - - -
1787923799 11.67° C 83% 1016.5 hPa 0 mm - - -
1787922899 11.11° C 84% 1016.6 hPa 0 mm - - -
1787921999 11.11° C 84% 1016.2 hPa 0 mm - - -
1787921099 11.67° C 84% 1016.4 hPa 0 mm - - -
1787920199 11.67° C 84% 1016.2 hPa 0 mm - - -
1787919299 11.67° C 84% 1016.1 hPa 0 mm - - -
1787918399 12.22° C 82% 1016 hPa 0 mm - - -
1787917499 12.22° C 82% 1016.1 hPa 0 mm - - -
1787916599 11.67° C 83% 1016.3 hPa 0 mm - - -
1787915699 11.67° C 82% 1016.1 hPa 0 mm - - -
1787914799 11.67° C 82% 1015.7 hPa 0 mm - - -
1787913899 11.67° C 81% 1016 hPa 0 mm - - -
1787912999 12.22° C 79% 1015.5 hPa 0 mm - - -
1787912099 12.22° C 81% 1015.7 hPa 0 mm - - -
1787911199 12.22° C 79% 1015.6 hPa 0 mm - - -
1787910299 12.22° C 78% 1015.5 hPa 0 mm - - -
1787909399 12.22° C 80% 1015.3 hPa 0 mm - - -
1787908499 12.78° C 81% 1015.1 hPa 0 mm - - -
1787907599 13.33° C 81% 1015.3 hPa 0 mm - - -
1787906699 13.89° C 79% 1015.3 hPa 0 mm - - -
1787905799 13.89° C 81% 1015 hPa 0 mm - - -
1787904869 13.89° C 80% 1015.2 hPa 0 mm - - -

* Rain latest hour (hover to see other rain measurements)
** Current wind speed in m/s (hover to see current wind gust speed)